Regional Weather Roundup
Issued by NWS

Home | Current Version | Previous Version | Graphics & Text | Print | Product List | Glossary On
Versions: 1 2 3 4 5 6 7 8 9 10 11 12 13 14 15 16 17 18 19 20 21 22 23 24 25 26 27 28 29 30 31 32 33 34 35 36 37 38 39 40 41 42 43 44 45 46 47 48 49 50
000
ASUS43 KLMK 212010
RWRKY
KENTUCKY REGIONAL WEATHER ROUNDUP
NATIONAL WEATHER SERVICE LOUISVILLE KY
300 PM EST TUE FEB 21 2017

NOTE "FAIR" INDICATES FEW OR NO CLOUDS BELOW 12,000 FEET
WITH NO SIGNIFICANT WEATHER AND/OR OBSTRUCTIONS TO VISIBILITY.

KYZ001>023-026-027-061>063-070>075-212100-
WESTERN AND SOUTH CENTRAL KENTUCKY

CITY           SKY/WX    TMP DP  RH WIND       PRES   REMARKS
PADUCAH        CLOUDY    64  55  72 VRB3      29.90S
HENDERSON      CLOUDY    63  52  67 NE5       29.92S
OWENSBORO      CLOUDY    67  54  63 S8        29.93F
HOPKINSVILLE   MOSUNNY   72  54  53 SW9       29.88F
BOWLING GREEN  CLOUDY    68  53  58 SE14      29.93F
GLASGOW        CLOUDY    67  51  56 SE8       29.94F
$$

KYZ024-025-028>034-038-045-046-053-212100-
NORTH CENTRAL KENTUCKY

CITY           SKY/WX    TMP DP  RH WIND       PRES   REMARKS
LOUISVILLE/SDF CLOUDY    71  48  43 S6        29.95S
LOUISVILLE/LOU CLOUDY    71  49  45 S7        29.95S
FORT KNOX      PTSUNNY   69  51  51 SE7       29.93F
$$

KYZ035>037-039>044-047>052-055>060-089>105-212100-
NORTHEAST KENTUCKY

CITY           SKY/WX    TMP DP  RH WIND       PRES   REMARKS
LEXINGTON      MOSUNNY   71  46  40 S10       29.98F
COVINGTON      CLOUDY    67  49  52 SW6       29.97F
FRANKFORT      PTSUNNY   71  47  42 SW12      29.96F
$$

KYZ054-064>069-076>088-106>120-212100-
SOUTHEAST KENTUCKY

CITY           SKY/WX    TMP DP  RH WIND       PRES   REMARKS
JACKSON        CLOUDY    71  42  35 CALM      30.01F
LONDON         CLOUDY    70  42  36 S8        29.99F
SOMERSET       MOSUNNY   70  45  40 S5        29.98F
MIDDLESBORO    PTSUNNY   71  43  37 CALM      30.00F
MONTICELLO     CLOUDY    70  51  51 E8        29.98F
$$





USA.gov is the U.S. government's official web portal to all federal, state and local government web resources and services.